Year,Month,Day,Hour,Minute,Value (Times are PST for windgust in km/hr)
2010,05,04,00,00,1.60
2010,05,04,00,01,1.60
2010,05,04,00,02,9.60
2010,05,04,00,03,11.30
2010,05,04,00,04,6.40
2010,05,04,00,05,3.20
2010,05,04,00,06,1.60
2010,05,04,00,07,3.20
2010,05,04,00,08,6.40
2010,05,04,00,09,4.80
2010,05,04,00,10,6.40
2010,05,04,00,11,1.60
2010,05,04,00,12,4.80
2010,05,04,00,16,9.60
2010,05,04,00,17,9.60
2010,05,04,00,18,4.80
2010,05,04,00,19,1.60
2010,05,04,00,20,3.20
2010,05,04,00,21,3.20
2010,05,04,00,22,4.80
2010,05,04,00,23,19.30
2010,05,04,00,24,14.50
2010,05,04,00,25,8.10
2010,05,04,00,26,6.40
2010,05,04,00,27,11.30
2010,05,04,00,28,8.10
2010,05,04,00,29,6.40
2010,05,04,00,30,8.10
2010,05,04,00,31,8.10
2010,05,04,00,32,9.60
2010,05,04,00,33,8.10
2010,05,04,00,34,14.50
2010,05,04,00,35,8.10
2010,05,04,00,36,6.40
2010,05,04,00,37,4.80
2010,05,04,00,38,4.80
2010,05,04,00,39,8.10
2010,05,04,00,40,6.40
2010,05,04,00,41,3.20
2010,05,04,00,42,1.60
2010,05,04,00,43,8.10
2010,05,04,00,44,8.10
2010,05,04,00,45,8.10
2010,05,04,00,46,8.10
2010,05,04,00,47,3.20
2010,05,04,00,48,3.20
2010,05,04,00,49,6.40
2010,05,04,00,50,1.60
2010,05,04,00,51,1.60
2010,05,04,00,52,6.40
2010,05,04,00,53,9.60
2010,05,04,00,54,6.40
2010,05,04,00,55,4.80
2010,05,04,00,56,3.20
2010,05,04,00,57,8.10
2010,05,04,00,58,4.80
2010,05,04,00,59,11.30
2010,05,04,01,00,6.40
2010,05,04,01,01,6.40
2010,05,04,01,02,4.80
2010,05,04,01,03,4.80
2010,05,04,01,04,3.20
2010,05,04,01,05,3.20
2010,05,04,01,06,3.20
2010,05,04,01,07,1.60
2010,05,04,01,08,3.20
2010,05,04,01,09,8.10
2010,05,04,01,10,6.40
2010,05,04,01,11,4.80
2010,05,04,01,12,1.60
2010,05,04,01,13,4.80
2010,05,04,01,14,8.10
2010,05,04,01,15,1.60
2010,05,04,01,16,3.20
2010,05,04,01,17,1.60
2010,05,04,01,18,3.20
2010,05,04,01,19,4.80
2010,05,04,01,20,4.80
2010,05,04,01,21,1.60
2010,05,04,01,22,1.60
2010,05,04,01,24,1.60
2010,05,04,01,25,3.20
2010,05,04,01,26,3.20
2010,05,04,01,27,3.20
2010,05,04,01,28,3.20
2010,05,04,01,29,3.20
2010,05,04,01,30,3.20
2010,05,04,01,31,1.60
2010,05,04,01,32,1.60
2010,05,04,01,33,1.60
2010,05,04,01,34,4.80
2010,05,04,01,35,3.20
2010,05,04,01,36,3.20
2010,05,04,01,37,1.60
2010,05,04,01,38,1.60
2010,05,04,01,39,1.60
2010,05,04,01,40,3.20
2010,05,04,01,41,4.80
2010,05,04,01,42,6.40
2010,05,04,01,43,4.80
2010,05,04,01,44,4.80
2010,05,04,01,45,6.40
2010,05,04,01,46,3.20
2010,05,04,01,47,1.60
2010,05,04,01,48,3.20
2010,05,04,01,49,6.40
2010,05,04,01,50,6.40
2010,05,04,01,51,4.80
2010,05,04,01,52,12.90
2010,05,04,01,53,9.60
2010,05,04,01,54,4.80
2010,05,04,01,55,3.20
2010,05,04,01,56,11.30
2010,05,04,01,57,8.10
2010,05,04,01,58,6.40
2010,05,04,01,59,3.20
2010,05,04,02,00,6.40
2010,05,04,02,01,6.40
2010,05,04,02,02,1.60
2010,05,04,02,03,4.80
2010,05,04,02,04,1.60
2010,05,04,02,05,4.80
2010,05,04,02,06,3.20
2010,05,04,02,07,3.20
2010,05,04,02,08,3.20
2010,05,04,02,09,1.60
2010,05,04,02,11,4.80
2010,05,04,02,12,1.60
2010,05,04,02,13,3.20
2010,05,04,02,14,3.20
2010,05,04,02,16,3.20
2010,05,04,02,17,3.20
2010,05,04,02,18,3.20
2010,05,04,02,19,1.60
2010,05,04,02,20,1.60
2010,05,04,02,22,4.80
2010,05,04,02,23,6.40
2010,05,04,02,24,3.20
2010,05,04,02,25,6.40
2010,05,04,02,26,3.20
2010,05,04,02,27,3.20
2010,05,04,02,28,1.60
2010,05,04,02,29,1.60
2010,05,04,02,30,3.20
2010,05,04,02,31,3.20
2010,05,04,02,32,3.20
2010,05,04,02,33,3.20
2010,05,04,02,34,4.80
2010,05,04,02,35,1.60
2010,05,04,02,36,3.20
2010,05,04,02,37,3.20
2010,05,04,02,38,3.20
2010,05,04,02,39,4.80
2010,05,04,02,40,3.20
2010,05,04,02,41,3.20
2010,05,04,02,42,1.60
2010,05,04,02,43,3.20
2010,05,04,02,44,1.60
2010,05,04,02,45,1.60
2010,05,04,02,46,3.20
2010,05,04,02,47,3.20
2010,05,04,02,48,3.20
2010,05,04,02,49,1.60
2010,05,04,02,50,1.60
2010,05,04,02,51,3.20
2010,05,04,02,52,3.20
2010,05,04,02,53,1.60
2010,05,04,02,54,3.20
2010,05,04,02,55,4.80
2010,05,04,02,56,6.40
2010,05,04,02,57,4.80
2010,05,04,02,58,1.60
2010,05,04,03,00,1.60
2010,05,04,03,02,1.60
2010,05,04,03,03,3.20
2010,05,04,03,04,3.20
2010,05,04,03,05,1.60
2010,05,04,03,07,1.60
2010,05,04,03,08,1.60
2010,05,04,03,09,1.60
2010,05,04,03,10,1.60
2010,05,04,03,11,1.60
2010,05,04,03,12,1.60
2010,05,04,03,13,1.60
2010,05,04,03,14,1.60
2010,05,04,03,15,1.60
2010,05,04,03,16,1.60
2010,05,04,03,17,1.60
2010,05,04,03,18,1.60
2010,05,04,03,20,3.20
2010,05,04,03,21,1.60
2010,05,04,03,22,1.60
2010,05,04,03,23,1.60
2010,05,04,03,24,1.60
2010,05,04,03,25,1.60
2010,05,04,03,26,1.60
2010,05,04,03,27,1.60
2010,05,04,03,28,1.60
2010,05,04,03,29,1.60
2010,05,04,03,30,1.60
2010,05,04,03,32,1.60
2010,05,04,03,33,1.60
2010,05,04,03,35,1.60
2010,05,04,03,36,1.60
2010,05,04,03,39,3.20
2010,05,04,03,40,1.60
2010,05,04,03,42,1.60
2010,05,04,03,43,1.60
2010,05,04,03,44,1.60
2010,05,04,03,45,3.20
2010,05,04,03,46,1.60
2010,05,04,03,47,1.60
2010,05,04,03,48,1.60
2010,05,04,03,49,1.60
2010,05,04,03,50,1.60
2010,05,04,03,51,1.60
2010,05,04,03,53,1.60
2010,05,04,03,55,1.60
2010,05,04,03,56,1.60
2010,05,04,03,58,1.60
2010,05,04,03,59,1.60
2010,05,04,04,00,1.60
2010,05,04,04,02,1.60
2010,05,04,04,03,1.60
2010,05,04,04,04,1.60
2010,05,04,04,05,1.60
2010,05,04,04,06,1.60
2010,05,04,04,07,1.60
2010,05,04,04,08,1.60
2010,05,04,04,09,1.60
2010,05,04,04,12,1.60
2010,05,04,04,13,1.60
2010,05,04,04,14,1.60
2010,05,04,04,15,1.60
2010,05,04,04,19,1.60
2010,05,04,04,35,1.60
2010,05,04,04,37,1.60
2010,05,04,04,38,1.60
2010,05,04,04,39,1.60
2010,05,04,05,13,1.60
2010,05,04,06,39,1.60
2010,05,04,06,43,1.60
2010,05,04,06,45,1.60
2010,05,04,06,46,1.60
2010,05,04,06,50,1.60
2010,05,04,06,56,1.60
2010,05,04,06,57,3.20
2010,05,04,06,59,1.60
2010,05,04,07,00,3.20
2010,05,04,07,01,1.60
2010,05,04,07,02,1.60
2010,05,04,07,05,1.60
2010,05,04,07,09,1.60
2010,05,04,07,15,1.60
2010,05,04,07,16,1.60
2010,05,04,07,17,3.20
2010,05,04,07,18,3.20
2010,05,04,07,20,1.60
2010,05,04,07,22,1.60
2010,05,04,07,24,1.60
2010,05,04,07,25,3.20
2010,05,04,07,26,3.20
2010,05,04,07,27,3.20
2010,05,04,07,28,4.80
2010,05,04,07,29,1.60
2010,05,04,07,30,1.60
2010,05,04,07,31,3.20
2010,05,04,07,32,4.80
2010,05,04,07,33,1.60
2010,05,04,07,34,3.20
2010,05,04,07,35,4.80
2010,05,04,07,36,3.20
2010,05,04,07,37,6.40
2010,05,04,07,38,3.20
2010,05,04,07,39,8.10
2010,05,04,07,40,4.80
2010,05,04,07,41,6.40
2010,05,04,07,42,4.80
2010,05,04,07,43,4.80
2010,05,04,07,44,1.60
2010,05,04,07,45,1.60
2010,05,04,07,46,4.80
2010,05,04,07,47,8.10
2010,05,04,07,48,6.40
2010,05,04,07,49,1.60
2010,05,04,07,50,3.20
2010,05,04,07,51,1.60
2010,05,04,07,52,9.60
2010,05,04,07,53,11.30
2010,05,04,07,54,4.80
2010,05,04,07,55,4.80
2010,05,04,07,56,9.60
2010,05,04,07,57,6.40
2010,05,04,07,58,4.80
2010,05,04,07,59,3.20
2010,05,04,08,00,4.80
2010,05,04,08,01,6.40
2010,05,04,08,02,3.20
2010,05,04,08,03,4.80
2010,05,04,08,04,4.80
2010,05,04,08,05,4.80
2010,05,04,08,06,8.10
2010,05,04,08,07,8.10
2010,05,04,08,08,9.60
2010,05,04,08,09,11.30
2010,05,04,08,10,6.40
2010,05,04,08,11,1.60
2010,05,04,08,12,1.60
2010,05,04,08,13,1.60
2010,05,04,08,14,6.40
2010,05,04,08,15,8.10
2010,05,04,08,16,8.10
2010,05,04,08,17,9.60
2010,05,04,08,18,14.50
2010,05,04,08,19,9.60
2010,05,04,08,20,6.40
2010,05,04,08,21,9.60
2010,05,04,08,22,11.30
2010,05,04,08,23,17.70
2010,05,04,08,24,6.40
2010,05,04,08,25,4.80
2010,05,04,08,26,11.30
2010,05,04,08,27,9.60
2010,05,04,08,28,14.50
2010,05,04,08,29,4.80
2010,05,04,08,30,3.20
2010,05,04,08,31,1.60
2010,05,04,08,32,8.10
2010,05,04,08,33,8.10
2010,05,04,08,34,17.70
2010,05,04,08,35,8.10
2010,05,04,08,36,6.40
2010,05,04,08,37,9.60
2010,05,04,08,38,12.90
2010,05,04,08,39,3.20
2010,05,04,08,40,1.60
2010,05,04,08,41,1.60
2010,05,04,08,42,8.10
2010,05,04,08,43,9.60
2010,05,04,08,44,4.80
2010,05,04,08,45,6.40
2010,05,04,08,46,11.30
2010,05,04,08,47,11.30
2010,05,04,08,48,6.40
2010,05,04,08,49,8.10
2010,05,04,08,50,6.40
2010,05,04,08,51,16.10
2010,05,04,08,52,14.50
2010,05,04,08,53,8.10
2010,05,04,08,54,8.10
2010,05,04,08,55,9.60
2010,05,04,08,56,8.10
2010,05,04,08,57,3.20
2010,05,04,08,58,1.60
2010,05,04,08,59,9.60
2010,05,04,09,00,9.60
2010,05,04,09,01,14.50
2010,05,04,09,02,9.60
2010,05,04,09,03,6.40
2010,05,04,09,04,4.80
2010,05,04,09,05,6.40
2010,05,04,09,06,17.70
2010,05,04,09,07,14.50
2010,05,04,09,08,9.60
2010,05,04,09,09,6.40
2010,05,04,09,10,11.30
2010,05,04,09,11,6.40
2010,05,04,09,12,16.10
2010,05,04,09,13,11.30
2010,05,04,09,14,9.60
2010,05,04,09,15,6.40
2010,05,04,09,16,8.10
2010,05,04,09,17,6.40
2010,05,04,09,18,3.20
2010,05,04,09,19,4.80
2010,05,04,09,20,3.20
2010,05,04,09,21,4.80
2010,05,04,09,22,6.40
2010,05,04,09,23,4.80
2010,05,04,09,24,8.10
2010,05,04,09,25,4.80
2010,05,04,09,26,3.20
2010,05,04,09,27,3.20
2010,05,04,09,28,4.80
2010,05,04,09,29,1.60
2010,05,04,09,30,1.60
2010,05,04,09,31,3.20
2010,05,04,09,32,3.20
2010,05,04,09,33,8.10
2010,05,04,09,34,6.40
2010,05,04,09,35,1.60
2010,05,04,09,36,1.60
2010,05,04,09,37,6.40
2010,05,04,09,38,9.60
2010,05,04,09,39,9.60
2010,05,04,09,40,8.10
2010,05,04,09,41,11.30
2010,05,04,09,42,16.10
2010,05,04,09,43,14.50
2010,05,04,09,44,12.90
2010,05,04,09,45,4.80
2010,05,04,09,46,6.40
2010,05,04,09,47,1.60
2010,05,04,09,48,3.20
2010,05,04,09,49,9.60
2010,05,04,09,50,16.10
2010,05,04,09,51,19.30
2010,05,04,09,52,4.80
2010,05,04,09,53,3.20
2010,05,04,09,54,6.40
2010,05,04,09,55,6.40
2010,05,04,09,56,4.80
2010,05,04,09,57,9.60
2010,05,04,09,58,19.30
2010,05,04,09,59,19.30
2010,05,04,10,00,14.50
2010,05,04,10,01,14.50
2010,05,04,10,02,8.10
2010,05,04,10,03,4.80
2010,05,04,10,04,3.20
2010,05,04,10,05,11.30
2010,05,04,10,06,8.10
2010,05,04,10,07,14.50
2010,05,04,10,08,11.30
2010,05,04,10,09,9.60
2010,05,04,10,10,6.40
2010,05,04,10,11,9.60
2010,05,04,10,12,17.70
2010,05,04,10,13,9.60
2010,05,04,10,14,11.30
2010,05,04,10,15,6.40
2010,05,04,10,16,6.40
2010,05,04,10,17,14.50
2010,05,04,10,18,9.60
2010,05,04,10,19,3.20
2010,05,04,10,20,4.80
2010,05,04,10,21,17.70
2010,05,04,10,22,14.50
2010,05,04,10,23,3.20
2010,05,04,10,24,8.10
2010,05,04,10,25,11.30
2010,05,04,10,26,4.80
2010,05,04,10,27,3.20
2010,05,04,10,28,9.60
2010,05,04,10,29,8.10
2010,05,04,10,30,8.10
2010,05,04,10,31,11.30
2010,05,04,10,32,6.40
2010,05,04,10,33,9.60
2010,05,04,10,34,6.40
2010,05,04,10,35,6.40
2010,05,04,10,36,17.70
2010,05,04,10,37,14.50
2010,05,04,10,38,8.10
2010,05,04,10,39,6.40
2010,05,04,10,40,12.90
2010,05,04,10,41,11.30
2010,05,04,10,42,16.10
2010,05,04,10,43,16.10
2010,05,04,10,44,17.70
2010,05,04,10,45,11.30
2010,05,04,10,46,9.60
2010,05,04,10,47,11.30
2010,05,04,10,48,17.70
2010,05,04,10,49,8.10
2010,05,04,10,50,14.50
2010,05,04,10,51,16.10
2010,05,04,10,52,12.90
2010,05,04,10,53,19.30
2010,05,04,10,54,14.50
2010,05,04,10,55,11.30
2010,05,04,10,56,14.50
2010,05,04,10,57,19.30
2010,05,04,10,58,6.40
2010,05,04,10,59,22.50
2010,05,04,11,00,20.90
2010,05,04,11,01,16.10
2010,05,04,11,02,14.50
2010,05,04,11,03,11.30
2010,05,04,11,04,4.80
2010,05,04,11,05,9.60
2010,05,04,11,06,11.30
2010,05,04,11,07,4.80
2010,05,04,11,08,3.20
2010,05,04,11,09,6.40
2010,05,04,11,10,16.10
2010,05,04,11,11,9.60
2010,05,04,11,12,9.60
2010,05,04,11,13,9.60
2010,05,04,11,14,4.80
2010,05,04,11,15,17.70
2010,05,04,11,16,19.30
2010,05,04,11,17,19.30
2010,05,04,11,18,17.70
2010,05,04,11,19,17.70
2010,05,04,11,20,16.10
2010,05,04,11,21,17.70
2010,05,04,11,22,19.30
2010,05,04,11,23,16.10
2010,05,04,11,24,11.30
2010,05,04,11,25,6.40
2010,05,04,11,26,4.80
2010,05,04,11,27,6.40
2010,05,04,11,28,4.80
2010,05,04,11,29,6.40
2010,05,04,11,30,8.10
2010,05,04,11,31,6.40
2010,05,04,11,32,9.60
2010,05,04,11,33,11.30
2010,05,04,11,34,9.60
2010,05,04,11,35,9.60
2010,05,04,11,36,6.40
2010,05,04,11,37,4.80
2010,05,04,11,38,9.60
2010,05,04,11,39,14.50
2010,05,04,11,40,4.80
2010,05,04,11,41,6.40
2010,05,04,11,42,6.40
2010,05,04,11,43,8.10
2010,05,04,11,44,6.40
2010,05,04,11,45,6.40
2010,05,04,11,46,4.80
2010,05,04,11,47,11.30
2010,05,04,11,48,16.10
2010,05,04,11,49,9.60
2010,05,04,11,50,6.40
2010,05,04,11,51,9.60
2010,05,04,11,52,9.60
2010,05,04,11,53,16.10
2010,05,04,11,54,19.30
2010,05,04,11,55,22.50
2010,05,04,11,56,27.40
2010,05,04,11,57,20.90
2010,05,04,11,58,20.90
2010,05,04,11,59,12.90
2010,05,04,12,00,19.30
2010,05,04,12,01,14.50
2010,05,04,12,02,17.70
2010,05,04,12,03,19.30
2010,05,04,12,04,17.70
2010,05,04,12,05,17.70
2010,05,04,12,06,17.70
2010,05,04,12,07,17.70
2010,05,04,12,08,14.50
2010,05,04,12,09,8.10
2010,05,04,12,10,16.10
2010,05,04,12,11,24.20
2010,05,04,12,12,24.20
2010,05,04,12,13,22.50
2010,05,04,12,14,14.50
2010,05,04,12,15,16.10
2010,05,04,12,16,12.90
2010,05,04,12,17,24.20
2010,05,04,12,18,20.90
2010,05,04,12,19,17.70
2010,05,04,12,20,17.70
2010,05,04,12,21,17.70
2010,05,04,12,22,19.30
2010,05,04,12,23,16.10
2010,05,04,12,24,11.30
2010,05,04,12,25,17.70
2010,05,04,12,26,11.30
2010,05,04,12,27,17.70
2010,05,04,12,28,17.70
2010,05,04,12,29,8.10
2010,05,04,12,30,17.70
2010,05,04,12,31,14.50
2010,05,04,12,32,16.10
2010,05,04,12,33,11.30
2010,05,04,12,34,11.30
2010,05,04,12,35,20.90
2010,05,04,12,36,17.70
2010,05,04,12,37,8.10
2010,05,04,12,38,6.40
2010,05,04,12,39,14.50
2010,05,04,12,40,4.80
2010,05,04,12,41,8.10
2010,05,04,12,42,11.30
2010,05,04,12,43,14.50
2010,05,04,12,44,11.30
2010,05,04,12,45,17.70
2010,05,04,12,46,24.20
2010,05,04,12,47,9.60
2010,05,04,12,48,6.40
2010,05,04,12,49,22.50
2010,05,04,12,50,16.10
2010,05,04,12,51,22.50
2010,05,04,12,52,17.70
2010,05,04,12,53,8.10
2010,05,04,12,54,9.60
2010,05,04,12,55,8.10
2010,05,04,12,56,6.40
2010,05,04,12,57,22.50
2010,05,04,12,58,24.20
2010,05,04,12,59,6.40
2010,05,04,13,00,14.50
2010,05,04,13,01,20.90
2010,05,04,13,02,11.30
2010,05,04,13,03,8.10
2010,05,04,13,04,8.10
2010,05,04,13,05,16.10
2010,05,04,13,06,19.30
2010,05,04,13,07,11.30
2010,05,04,13,08,14.50
2010,05,04,13,09,16.10
2010,05,04,13,10,17.70
2010,05,04,13,11,20.90
2010,05,04,13,12,8.10
2010,05,04,13,13,17.70
2010,05,04,13,14,22.50
2010,05,04,13,15,24.20
2010,05,04,13,16,20.90
2010,05,04,13,17,14.50
2010,05,04,13,18,16.10
2010,05,04,13,19,19.30
2010,05,04,13,20,11.30
2010,05,04,13,21,22.50
2010,05,04,13,22,11.30
2010,05,04,13,23,14.50
2010,05,04,13,24,25.70
2010,05,04,13,25,17.70
2010,05,04,13,26,16.10
2010,05,04,13,27,17.70
2010,05,04,13,28,11.30
2010,05,04,13,29,25.70
2010,05,04,13,30,16.10
2010,05,04,13,31,19.30
2010,05,04,13,32,22.50
2010,05,04,13,33,12.90
2010,05,04,13,34,22.50
2010,05,04,13,35,17.70
2010,05,04,13,36,14.50
2010,05,04,13,37,12.90
2010,05,04,13,38,14.50
2010,05,04,13,39,9.60
2010,05,04,13,40,16.10
2010,05,04,13,41,20.90
2010,05,04,13,42,9.60
2010,05,04,13,43,14.50
2010,05,04,13,44,9.60
2010,05,04,13,45,11.30
2010,05,04,13,46,25.70
2010,05,04,13,47,19.30
2010,05,04,13,48,20.90
2010,05,04,13,49,22.50
2010,05,04,13,50,16.10
2010,05,04,13,51,27.40
2010,05,04,13,52,19.30
2010,05,04,13,53,16.10
2010,05,04,13,54,22.50
2010,05,04,13,55,25.70
2010,05,04,13,56,25.70
2010,05,04,13,57,27.40
2010,05,04,13,58,20.90
2010,05,04,13,59,8.10
2010,05,04,14,00,16.10
2010,05,04,14,01,12.90
2010,05,04,14,02,16.10
2010,05,04,14,03,19.30
2010,05,04,14,04,9.60
2010,05,04,14,05,16.10
2010,05,04,14,06,22.50
2010,05,04,14,07,30.60
2010,05,04,14,08,20.90
2010,05,04,14,09,9.60
2010,05,04,14,10,19.30
2010,05,04,14,11,20.90
2010,05,04,14,12,24.20
2010,05,04,14,13,24.20
2010,05,04,14,14,16.10
2010,05,04,14,15,8.10
2010,05,04,14,16,17.70
2010,05,04,14,17,19.30
2010,05,04,14,18,16.10
2010,05,04,14,19,9.60
2010,05,04,14,20,4.80
2010,05,04,14,21,9.60
2010,05,04,14,22,17.70
2010,05,04,14,23,8.10
2010,05,04,14,24,19.30
2010,05,04,14,25,4.80
2010,05,04,14,26,11.30
2010,05,04,14,27,9.60
2010,05,04,14,28,11.30
2010,05,04,14,29,11.30
2010,05,04,14,30,14.50
2010,05,04,14,31,16.10
2010,05,04,14,32,9.60
2010,05,04,14,33,8.10
2010,05,04,14,34,17.70
2010,05,04,14,35,22.50
2010,05,04,14,36,11.30
2010,05,04,14,37,19.30
2010,05,04,14,38,4.80
2010,05,04,14,39,17.70
2010,05,04,14,40,17.70
2010,05,04,14,41,20.90
2010,05,04,14,42,12.90
2010,05,04,14,43,8.10
2010,05,04,14,44,19.30
2010,05,04,14,45,17.70
2010,05,04,14,46,25.70
2010,05,04,14,47,16.10
2010,05,04,14,48,20.90
2010,05,04,14,49,14.50
2010,05,04,14,50,11.30
2010,05,04,14,51,17.70
2010,05,04,14,52,14.50
2010,05,04,14,53,14.50
2010,05,04,14,54,9.60
2010,05,04,14,55,16.10
2010,05,04,14,56,19.30
2010,05,04,14,57,16.10
2010,05,04,14,58,17.70
2010,05,04,14,59,19.30
2010,05,04,15,00,16.10
2010,05,04,15,01,16.10
2010,05,04,15,02,4.80
2010,05,04,15,03,24.20
2010,05,04,15,04,9.60
2010,05,04,15,05,14.50
2010,05,04,15,06,11.30
2010,05,04,15,07,9.60
2010,05,04,15,08,6.40
2010,05,04,15,09,9.60
2010,05,04,15,10,8.10
2010,05,04,15,11,6.40
2010,05,04,15,12,6.40
2010,05,04,15,13,8.10
2010,05,04,15,14,4.80
2010,05,04,15,15,6.40
2010,05,04,15,16,9.60
2010,05,04,15,17,8.10
2010,05,04,15,18,8.10
2010,05,04,15,19,9.60
2010,05,04,15,20,9.60
2010,05,04,15,21,11.30
2010,05,04,15,22,8.10
2010,05,04,15,23,8.10
2010,05,04,15,24,3.20
2010,05,04,15,25,3.20
2010,05,04,15,26,3.20
2010,05,04,15,27,8.10
2010,05,04,15,28,8.10
2010,05,04,15,29,3.20
2010,05,04,15,30,12.90
2010,05,04,15,31,6.40
2010,05,04,15,32,11.30
2010,05,04,15,33,11.30
2010,05,04,15,34,6.40
2010,05,04,15,35,12.90
2010,05,04,15,36,9.60
2010,05,04,15,37,6.40
2010,05,04,15,38,6.40
2010,05,04,15,39,6.40
2010,05,04,15,40,6.40
2010,05,04,15,41,3.20
2010,05,04,15,42,1.60
2010,05,04,15,43,3.20
2010,05,04,15,44,8.10
2010,05,04,15,45,9.60
2010,05,04,15,46,9.60
2010,05,04,15,47,14.50
2010,05,04,15,48,12.90
2010,05,04,15,49,9.60
2010,05,04,15,50,11.30
2010,05,04,15,51,14.50
2010,05,04,15,52,8.10
2010,05,04,15,53,8.10
2010,05,04,15,54,8.10
2010,05,04,15,55,11.30
2010,05,04,15,56,16.10
2010,05,04,15,57,19.30
2010,05,04,15,58,11.30
2010,05,04,15,59,8.10
2010,05,04,16,00,6.40
2010,05,04,16,01,8.10
2010,05,04,16,02,12.90
2010,05,04,16,03,11.30
2010,05,04,16,04,17.70
2010,05,04,16,05,8.10
2010,05,04,16,06,9.60
2010,05,04,16,07,6.40
2010,05,04,16,08,16.10
2010,05,04,16,09,16.10
2010,05,04,16,10,8.10
2010,05,04,16,11,4.80
2010,05,04,16,12,11.30
2010,05,04,16,13,8.10
2010,05,04,16,14,6.40
2010,05,04,16,15,6.40
2010,05,04,16,16,9.60
2010,05,04,16,17,9.60
2010,05,04,16,18,8.10
2010,05,04,16,19,6.40
2010,05,04,16,20,6.40
2010,05,04,16,21,6.40
2010,05,04,16,22,9.60
2010,05,04,16,23,8.10
2010,05,04,16,24,8.10
2010,05,04,16,25,9.60
2010,05,04,16,26,6.40
2010,05,04,16,27,4.80
2010,05,04,16,28,6.40
2010,05,04,16,29,11.30
2010,05,04,16,30,3.20
2010,05,04,16,31,4.80
2010,05,04,16,32,11.30
2010,05,04,16,33,11.30
2010,05,04,16,34,11.30
2010,05,04,16,35,4.80
2010,05,04,16,36,6.40
2010,05,04,16,37,11.30
2010,05,04,16,38,4.80
2010,05,04,16,39,4.80
2010,05,04,16,40,8.10
2010,05,04,16,41,9.60
2010,05,04,16,42,6.40
2010,05,04,16,43,11.30
2010,05,04,16,44,11.30
2010,05,04,16,45,6.40
2010,05,04,16,46,6.40
2010,05,04,16,47,3.20
2010,05,04,16,48,6.40
2010,05,04,16,49,6.40
2010,05,04,16,50,8.10
2010,05,04,16,51,14.50
2010,05,04,16,52,11.30
2010,05,04,16,53,14.50
2010,05,04,16,54,6.40
2010,05,04,16,55,9.60
2010,05,04,16,56,11.30
2010,05,04,16,57,9.60
2010,05,04,16,58,14.50
2010,05,04,16,59,9.60
2010,05,04,17,00,11.30
2010,05,04,17,01,14.50
2010,05,04,17,02,11.30
2010,05,04,17,03,12.90
2010,05,04,17,04,14.50
2010,05,04,17,05,12.90
2010,05,04,17,06,8.10
2010,05,04,17,07,9.60
2010,05,04,17,08,16.10
2010,05,04,17,09,6.40
2010,05,04,17,10,17.70
2010,05,04,17,11,22.50
2010,05,04,17,12,17.70
2010,05,04,17,13,16.10
2010,05,04,17,14,9.60
2010,05,04,17,15,14.50
2010,05,04,17,16,22.50
2010,05,04,17,17,17.70
2010,05,04,17,18,22.50
2010,05,04,17,19,24.20
2010,05,04,17,20,14.50
2010,05,04,17,21,14.50
2010,05,04,17,22,9.60
2010,05,04,17,23,11.30
2010,05,04,17,24,16.10
2010,05,04,17,25,16.10
2010,05,04,17,26,3.20
2010,05,04,17,27,14.50
2010,05,04,17,28,14.50
2010,05,04,17,29,9.60
2010,05,04,17,30,17.70
2010,05,04,17,31,11.30
2010,05,04,17,32,19.30
2010,05,04,17,33,16.10
2010,05,04,17,34,11.30
2010,05,04,17,35,16.10
2010,05,04,17,36,9.60
2010,05,04,17,37,6.40
2010,05,04,17,38,9.60
2010,05,04,17,39,8.10
2010,05,04,17,40,16.10
2010,05,04,17,41,17.70
2010,05,04,17,42,9.60
2010,05,04,17,43,16.10
2010,05,04,17,44,6.40
2010,05,04,17,45,8.10
2010,05,04,17,46,9.60
2010,05,04,17,47,8.10
2010,05,04,17,48,8.10
2010,05,04,17,49,19.30
2010,05,04,17,50,14.50
2010,05,04,17,51,9.60
2010,05,04,17,52,22.50
2010,05,04,17,53,16.10
2010,05,04,17,54,9.60
2010,05,04,17,55,17.70
2010,05,04,17,56,25.70
2010,05,04,17,57,20.90
2010,05,04,17,58,11.30
2010,05,04,17,59,16.10
2010,05,04,18,00,4.80
2010,05,04,18,01,14.50
2010,05,04,18,02,19.30
2010,05,04,18,03,9.60
2010,05,04,18,04,4.80
2010,05,04,18,05,24.20
2010,05,04,18,06,14.50
2010,05,04,18,07,17.70
2010,05,04,18,08,9.60
2010,05,04,18,09,8.10
2010,05,04,18,10,8.10
2010,05,04,18,11,14.50
2010,05,04,18,12,16.10
2010,05,04,18,13,8.10
2010,05,04,18,14,11.30
2010,05,04,18,15,11.30
2010,05,04,18,16,6.40
2010,05,04,18,17,6.40
2010,05,04,18,18,14.50
2010,05,04,18,19,16.10
2010,05,04,18,20,8.10
2010,05,04,18,21,9.60
2010,05,04,18,22,8.10
2010,05,04,18,23,8.10
2010,05,04,18,24,8.10
2010,05,04,18,25,11.30
2010,05,04,18,26,11.30
2010,05,04,18,27,6.40
2010,05,04,18,28,8.10
2010,05,04,18,29,8.10
2010,05,04,18,30,6.40
2010,05,04,18,31,8.10
2010,05,04,18,32,9.60
2010,05,04,18,33,11.30
2010,05,04,18,34,11.30
2010,05,04,18,35,8.10
2010,05,04,18,36,4.80
2010,05,04,18,37,11.30
2010,05,04,18,38,8.10
2010,05,04,18,39,9.60
2010,05,04,18,40,9.60
2010,05,04,18,41,6.40
2010,05,04,18,42,8.10
2010,05,04,18,43,3.20
2010,05,04,18,44,6.40
2010,05,04,18,45,9.60
2010,05,04,18,46,4.80
2010,05,04,18,47,11.30
2010,05,04,18,48,6.40
2010,05,04,18,49,8.10
2010,05,04,18,50,4.80
2010,05,04,18,51,3.20
2010,05,04,18,52,4.80
2010,05,04,18,53,8.10
2010,05,04,18,54,9.60
2010,05,04,18,55,4.80
2010,05,04,18,56,9.60
2010,05,04,18,57,9.60
2010,05,04,18,58,6.40
2010,05,04,18,59,4.80
2010,05,04,19,00,9.60
2010,05,04,19,01,6.40
2010,05,04,19,02,4.80
2010,05,04,19,03,9.60
2010,05,04,19,04,6.40
2010,05,04,19,05,1.60
2010,05,04,19,06,3.20
2010,05,04,19,07,3.20
2010,05,04,19,08,6.40
2010,05,04,19,09,8.10
2010,05,04,19,10,4.80
2010,05,04,19,11,1.60
2010,05,04,19,12,4.80
2010,05,04,19,13,4.80
2010,05,04,19,14,3.20
2010,05,04,19,15,1.60
2010,05,04,19,16,6.40
2010,05,04,19,17,6.40
2010,05,04,19,18,1.60
2010,05,04,19,19,3.20
2010,05,04,19,20,3.20
2010,05,04,19,22,4.80
2010,05,04,19,25,1.60
2010,05,04,19,28,1.60
2010,05,04,19,31,1.60
2010,05,04,19,32,1.60
2010,05,04,19,37,1.60
2010,05,04,19,38,4.80
2010,05,04,19,39,6.40
2010,05,04,19,40,6.40
2010,05,04,19,41,4.80
2010,05,04,19,42,1.60
2010,05,04,19,44,3.20
2010,05,04,19,45,4.80
2010,05,04,19,46,3.20
2010,05,04,19,47,3.20
2010,05,04,19,48,1.60
2010,05,04,19,49,1.60
2010,05,04,19,51,1.60
2010,05,04,19,52,1.60
2010,05,04,19,53,1.60
2010,05,04,19,55,1.60
2010,05,04,19,57,1.60
2010,05,04,19,58,1.60
2010,05,04,20,05,1.60
2010,05,04,20,07,3.20
2010,05,04,20,08,1.60
2010,05,04,20,09,3.20
2010,05,04,20,10,3.20
2010,05,04,20,11,1.60
2010,05,04,20,12,1.60
2010,05,04,20,13,1.60
2010,05,04,20,14,1.60
2010,05,04,20,16,1.60
2010,05,04,20,18,1.60
2010,05,04,20,28,1.60
2010,05,04,21,03,1.60
2010,05,04,22,12,1.60
2010,05,04,22,13,1.60
2010,05,04,22,45,1.60
2010,05,04,23,30,1.60
2010,05,04,23,31,1.60
2010,05,04,23,36,1.60
2010,05,04,23,37,1.60
